SCP
2 1 0 0 1 0 0 0 0 1 1 1 1 1 1 1 1 1 1 2 2 2 2 3 3 4 3 2 2 2 2 2 2 3 3 3 3 2 2 2 2 1 1 1 1 1 1 1 1
2 1 0 0 0 0 0 0 0 1 1 1 1 1 1 1 1 1 1 1 2 2 2 3 3 4 3 2 2 2 2 2 2 3 3 3 3 2 2 2 2 1 1 1 1 1 1 1 1
1 1 0 0 0 0 0 0 1 1 1 1 1 1 1 1 1 1 1 1 1 2 2 3 4 4 3 2 2 2 2 2 3 3 3 3 3 3 2 2 2 1 1 1 1 1 1 1 2
1 1 0 0 0 0 0 0 1 1 1 1 1 1 1 1 1 1 1 1 1 2 2 3 4 3 3 2 2 2 2 2 3 3 3 3 3 3 2 2 2 2 1 1 1 1 1 1 1
1 0 0 0 0 0 0 0 1 1 1 2 1 1 1 1 1 1 1 1 2 2 2 3 3 3 3 2 2 2 2 2 3 3 3 3 3 3 3 2 2 2 1 1 1 1 1 1 1
0 0 0 0 0 0 0 0 1 1 2 2 1 1 1 1 1 1 1 1 2 2 2 3 3 3 2 2 2 2 2 2 2 3 3 3 3 3 3 2 2 2 2 1 1 1 1 1 1
0 0 0 0 0 0 0 0 1 1 2 2 1 1 1 1 1 1 1 2 2 2 2 3 2 2 2 2 2 2 2 2 2 2 2 2 3 3 3 2 2 2 2 1 1 1 1 1 1
0 0 0 0 0 0 0 0 1 1 1 1 1 1 1 1 2 1 2 2 2 2 2 2 2 2 1 2 2 2 2 1 1 2 2 2 3 3 3 2 2 2 2 2 1 1 1 1 1
0 0 0 0 0 0 0 0 1 1 1 1 1 0 1 1 1 2 2 2 2 2 2 2 2 2 1 1 1 1 1 1 1 1 1 1 2 3 3 2 2 2 2 2 2 2 1 1 1
0 0 0 0 0 0 0 0 0 1 1 1 0 0 0 1 1 2 2 2 2 2 2 2 2 2 2 2 1 1 1 1 1 1 1 1 2 2 3 2 2 2 2 2 1 1 1 1 1
0 0 0 0 0 0 0 0 0 1 1 1 1 0 0 1 1 1 2 2 1 1 2 2 2 2 2 2 2 2 1 1 1 1 1 1 2 2 3 2 2 2 2 2 1 1 1 1 1
0 0 0 0 0 0 0 0 0 1 1 1 1 1 1 1 1 1 1 1 1 1 2 2 2 2 2 2 2 2 2 1 1 1 1 1 2 2 3 3 2 2 2 2 1 1 1 1 1
0 0 0 0 0 0 0 0 0 1 1 1 1 1 1 0 1 1 1 1 1 1 2 2 2 2 2 1 1 1 2 1 1 1 1 1 2 2 3 3 2 2 2 2 1 1 1 1 0
0 0 0 0 0 0 0 0 0 0 0 1 1 1 1 0 0 0 1 1 1 1 2 2 2 2 2 1 1 1 1 2 1 1 1 1 2 2 3 2 2 2 1 1 1 1 1 1 1
0 0 0 0 0 0 0 0 0 0 0 1 1 1 1 1 0 0 0 1 1 1 2 2 2 2 2 1 1 1 1 1 1 1 1 1 2 2 2 2 2 1 1 1 1 1 1 1 1
0 0 0 0 0 0 0 0 0 0 1 1 1 1 1 1 0 0 0 1 1 1 2 2 2 2 2 1 1 1 1 1 1 1 1 1 1 2 2 1 1 1 1 1 1 1 1 1 1
1 0 0 0 0 0 0 0 0 0 1 1 1 1 1 1 0 0 0 0 1 1 2 2 2 2 1 1 1 1 1 1 1 1 2 1 1 1 1 1 1 1 1 1 1 1 1 1 1
0 0 0 0 0 0 0 0 0 0 1 1 1 1 1 1 1 1 0 0 1 1 2 1 1 1 1 1 1 1 1 1 1 1 2 2 1 1 1 1 1 1 1 1 1 1 1 1 1
0 0 0 0 0 0 0 0 0 0 0 1 1 1 1 1 1 1 1 1 1 1 1 1 1 1 1 1 1 1 1 1 1 1 1 1 1 1 1 1 1 1 1 1 1 1 1 1 1
0 0 0 0 0 0 0 0 0 0 0 0 1 1 1 1 1 1 1 1 1 1 1 1 1 1 1 1 1 1 0 0 1 1 1 1 1 1 1 1 1 1 1 1 1 1 1 1 1
0 0 0 0 0 0 0 0 0 0 0 0 0 1 1 1 1 1 1 1 1 1 1 1 1 1 1 1 1 0 0 1 1 1 1 1 1 2 1 1 1 1 1 1 1 1 1 1 2
0 0 0 0 0 0 0 0 0 0 0 0 0 0 1 1 1 1 2 2 1 1 1 1 1 1 1 1 1 1 1 1 1 2 1 1 1 1 2 1 1 1 1 1 1 1 1 1 1
0 0 0 0 0 0 0 0 0 0 0 0 0 0 1 1 1 1 1 1 1 1 1 1 1 1 1 1 1 1 1 1 1 1 1 1 1 1 1 1 1 2 1 1 1 1 1 1 1
0 0 0 0 0 0 0 0 0 0 0 0 0 0 0 1 1 1 1 1 1 1 1 1 1 1 1 1 1 1 1 1 1 1 1 0 0 0 1 1 1 1 1 1 1 1 1 1 1
0 0 0 0 0 0 0 0 0 0 0 0 0 0 0 0 0 1 1 1 1 1 1 1 1 1 1 1 0 1 1 1 1 1 1 0 0 0 1 1 1 1 2 2 2 1 1 1 1
0 0 0 0 0 0 0 0 0 0 0 0 0 0 0 0 0 0 0 1 1 1 1 0 1 1 1 0 0 0 1 1 1 1 1 0 0 0 0 1 1 1 2 1 1 1 1 1 1
0 0 0 0 0 0 0 0 0 0 0 0 0 0 0 0 0 0 0 0 0 0 0 0 0 0 0 0 0 0 0 1 1 1 0 0 0 0 0 1 1 1 1 1 1 1 0 0 0
0 0 0 0 0 0 0 0 0 0 0 0 0 0 0 0 0 0 0 0 0 0 0 0 0 0 0 0 0 0 0 0 0 0 0 0 0 0 0 0 1 1 1 0 0 0 0 0 0
0 0 0 0 0 0 0 0 0 0 0 0 0 0 0 0 0 0 0 0 0 0 0 0 0 0 0 0 0 0 0 0 0 0 0 0 0 0 0 1 1 1 1 0 0 0 0 0 0
0 0 0 0 0 0 0 0 0 0 0 0 0 0 0 0 0 0 0 0 0 0 0 0 0 0 0 0 0 0 0 0 0 0 0 0 0 0 1 1 1 1 1 0 0 0 0 0 0
Wind_Speed
5 4 3 3 5 7 10 7 5 5 4 2 1 2 2 2 2 2 4 2 2 4 6 7 6 6 7 7 7 7 8 8 8 9 9 9 9 8 8 8 9 9 9 9 10 9 10 10 10
4 3 3 4 7 9 9 7 8 5 2 2 2 3 2 1 2 3 2 1 2 4 5 6 6 7 7 7 7 7 7 8 8 9 8 8 8 8 8 8 8 9 9 9 9 9 10 10 10
2 3 3 4 7 10 7 4 4 2 2 3 3 2 2 0 1 1 1 1 3 4 4 5 6 7 7 7 7 7 7 8 8 8 8 8 8 8 8 7 7 8 8 9 9 9 9 9 9
2 3 3 6 10 8 6 3 2 3 3 3 3 3 2 2 2 2 1 2 4 5 4 6 5 6 7 7 7 7 7 8 8 8 8 8 8 8 7 7 7 7 8 8 8 9 9 9 9
2 3 5 7 9 6 4 3 3 4 2 2 4 3 2 1 2 1 1 3 4 5 4 6 5 6 6 7 6 7 7 7 8 7 7 8 8 8 7 7 6 6 7 8 8 8 8 8 8
3 4 6 9 9 6 4 4 4 5 4 2 2 4 2 2 1 1 1 2 2 3 4 5 5 5 6 6 6 6 7 6 7 7 7 8 8 8 7 7 6 6 7 7 8 8 8 8 7
3 4 6 7 7 6 3 2 4 4 5 3 3 3 2 2 2 1 1 2 2 2 3 3 5 5 5 5 5 5 5 6 6 7 7 7 7 7 7 7 6 6 6 7 7 7 7 7 7
2 3 5 7 7 6 2 1 1 4 3 1 3 4 2 1 1 1 1 2 2 1 2 2 3 4 5 5 5 5 5 5 5 6 6 6 6 7 6 6 5 6 6 6 6 7 7 7 7
3 5 7 7 6 3 2 2 1 2 2 2 2 3 3 3 1 1 1 1 1 1 1 2 2 2 3 4 5 5 4 4 5 5 6 5 5 6 5 5 5 6 6 6 6 6 7 6 6
4 6 6 3 3 2 2 3 2 3 4 4 3 2 1 1 1 1 1 1 1 1 1 1 2 2 3 3 4 3 3 3 4 4 5 4 4 3 4 6 5 5 6 6 6 6 6 4 3
3 4 2 3 2 2 3 3 3 5 5 5 4 3 1 2 2 2 2 2 2 2 1 1 2 2 2 2 3 2 2 3 3 4 5 4 4 3 3 3 3 4 4 4 4 4 3 2 2
3 3 3 3 2 3 4 3 4 6 6 4 3 2 2 2 2 3 3 3 2 2 2 2 2 2 2 2 2 2 2 2 2 3 4 4 3 3 3 2 3 2 2 2 2 1 2 2 2
4 2 2 3 3 4 5 6 6 7 5 4 3 3 3 3 3 3 4 4 3 2 2 2 2 2 2 2 2 2 3 3 3 3 4 4 3 3 3 2 2 2 2 2 2 1 2 2 2
1 2 4 4 4 4 5 6 6 6 3 3 3 3 3 3 3 3 3 3 3 3 3 2 2 2 3 3 2 2 2 3 3 3 3 4 3 3 3 3 3 2 2 1 2 2 1 1 1
2 2 3 3 3 2 4 7 7 4 3 4 4 4 3 3 3 3 4 3 4 3 3 3 3 2 3 3 3 2 2 2 3 3 3 4 4 4 3 3 3 2 2 2 2 2 1 1 1
3 4 3 1 2 2 5 7 3 3 3 4 4 4 3 3 4 3 4 4 4 3 3 3 2 2 2 3 3 2 2 3 2 2 3 4 4 4 3 3 2 2 2 2 2 2 2 2 2
4 5 5 3 2 2 5 7 3 3 4 5 4 4 4 4 4 3 4 3 4 3 3 3 3 3 2 2 2 2 2 3 3 3 2 3 4 4 3 3 2 3 2 2 2 2 2 2 2
4 5 5 5 1 4 7 8 7 5 5 5 4 4 4 4 4 3 3 3 3 3 3 3 3 3 3 2 2 2 3 2 2 3 3 3 4 5 4 3 3 3 3 2 2 2 2 2 2
4 6 7 5 2 5 8 9 8 4 4 4 3 3 3 3 3 3 3 3 3 2 2 3 3 3 3 2 2 2 2 2 3 3 3 4 4 5 4 3 4 3 3 3 3 3 3 2 2
5 5 6 4 2 5 7 9 5 2 2 2 2 2 2 2 3 3 4 3 3 3 2 2 3 4 4 3 2 2 2 2 2 2 3 3 4 4 4 4 4 4 3 4 4 4 3 2 2
5 5 4 4 5 4 5 5 3 2 1 2 2 2 2 2 3 4 4 4 3 3 3 2 2 3 3 3 2 2 2 2 2 3 3 4 4 5 5 5 4 4 4 4 5 5 5 3 3
4 3 4 4 4 2 3 4 2 1 0 2 3 3 3 4 4 5 5 5 4 4 3 3 3 2 3 3 4 5 4 4 4 3 3 3 4 5 5 5 5 5 4 5 5 5 5 5 4
3 3 3 4 4 4 3 5 2 1 1 2 3 3 4 5 5 5 6 6 5 5 4 3 3 2 2 3 5 5 5 4 3 3 4 4 4 4 5 5 4 4 4 5 6 5 6 5 5
1 2 1 2 3 4 3 5 3 1 1 2 2 4 4 5 6 6 6 6 5 5 4 4 3 3 2 2 4 5 6 5 4 4 4 3 3 4 5 5 5 5 4 5 6 6 6 5 6
1 2 1 2 3 3 2 4 4 2 2 2 2 3 4 5 6 6 7 6 6 6 5 4 3 3 3 2 3 4 5 5 5 5 4 4 3 3 4 5 5 4 5 5 5 5 6 6 6
2 2 2 3 3 1 2 5 0 2 2 2 2 2 4 5 6 6 6 6 6 6 5 5 4 4 3 3 2 3 3 3 3 4 4 4 3 3 4 5 5 5 5 5 5 5 5 5 6
2 2 2 1 2 4 4 3 2 1 1 2 2 3 4 5 5 6 6 6 6 6 6 5 4 4 4 3 3 3 3 3 4 4 4 3 4 4 5 5 5 5 5 5 5 4 5 5 5
2 1 2 2 3 4 4 4 2 1 1 2 3 4 5 5 6 6 6 6 6 6 6 5 4 4 4 4 3 2 3 3 3 4 4 4 4 4 5 5 5 5 4 5 5 4 5 5 5
2 2 2 2 3 4 4 1 3 1 1 2 3 4 5 6 6 6 6 6 6 5 5 5 5 4 4 4 4 3 3 3 3 3 4 3 3 4 4 4 4 4 4 4 5 5 5 6 5
2 2 3 3 3 4 4 2 3 2 2 3 4 4 5 6 6 6 6 5 5 5 5 5 5 4 4 4 4 3 3 3 3 3 3 2 3 3 3 3 4 4 4 5 5 5 6 6 6
Wind_Direction
325 308 263 229 220 227 235 226 221 192 188 168 197 223 216 230 262 62 59 99 135 156 152 142 129 124 125 127 122 124 129 130 130 129 127 125 124 126 124 122 121 120 117 115 115 116 117 112 108
316 284 231 224 233 229 224 218 216 214 153 140 184 210 212 206 11 39 70 101 172 160 156 148 129 127 125 130 129 123 132 131 131 129 127 126 125 124 125 123 121 123 121 118 114 111 116 115 112
293 268 234 218 232 239 230 197 207 202 197 214 196 232 263 335 61 47 41 182 181 161 154 134 128 129 126 130 132 129 133 133 128 131 130 127 126 125 123 124 123 124 123 120 116 113 111 116 116
252 207 216 232 231 240 255 220 154 185 190 224 219 200 174 22 3 21 37 181 177 167 159 137 131 132 127 128 134 131 127 132 129 130 133 129 128 126 123 121 123 126 126 123 120 117 115 114 117
244 223 213 226 238 243 249 258 225 224 208 201 213 223 206 95 22 24 154 176 180 171 161 146 137 136 134 131 132 136 128 131 131 128 132 130 128 123 121 119 119 125 128 125 124 122 119 120 117
206 220 225 231 235 237 241 240 235 236 235 233 241 233 206 99 51 34 119 167 175 168 164 153 145 138 133 129 126 130 131 127 132 128 128 128 125 122 121 119 115 122 125 126 124 122 124 125 123
225 216 235 239 245 241 234 227 236 237 234 250 268 238 178 115 42 16 165 153 142 143 148 153 160 152 136 126 126 123 129 126 130 128 128 130 127 125 125 122 116 122 125 128 128 125 125 123 119
263 226 225 228 236 242 207 198 251 262 261 317 276 241 200 37 358 251 174 146 134 131 145 159 163 160 158 151 127 121 119 123 125 125 119 127 129 130 127 123 114 120 121 123 125 123 121 119 119
230 226 229 229 231 227 171 211 251 283 246 252 264 299 336 332 298 217 145 154 164 157 165 163 158 156 162 158 141 139 129 122 132 135 119 139 152 146 141 120 109 118 121 123 126 126 123 123 125
215 230 239 257 251 238 217 253 261 227 232 237 229 258 329 326 229 199 214 239 236 229 203 175 162 161 165 161 159 168 168 155 165 162 155 163 156 146 141 121 111 117 119 124 118 123 132 142 140
213 240 249 253 264 251 246 261 256 237 243 247 254 267 285 313 276 238 250 244 251 236 220 217 178 166 166 168 172 173 175 172 177 171 162 162 154 147 146 138 128 132 133 133 128 139 141 141 136
210 244 253 262 285 267 259 257 256 252 260 284 271 256 246 257 267 268 266 258 250 237 241 238 184 168 174 168 175 180 177 181 180 176 167 165 159 156 155 153 150 151 146 140 145 157 150 146 152
219 240 267 274 283 278 265 255 261 256 264 269 252 239 249 263 271 276 279 285 263 240 238 239 207 180 172 173 181 187 188 185 181 182 176 171 163 162 163 159 152 148 144 154 155 168 166 169 171
210 249 267 279 271 256 256 265 252 246 246 245 245 253 268 277 285 285 281 297 279 246 230 224 213 197 183 182 184 191 194 185 188 183 179 175 169 167 166 162 160 155 158 158 174 184 187 196 200
199 243 264 250 252 243 260 257 237 239 245 253 259 269 282 281 280 289 282 280 280 256 237 227 222 206 198 193 193 195 199 193 187 185 180 175 170 166 170 169 168 168 167 164 177 182 193 207 214
205 219 235 203 244 230 249 259 240 235 249 259 268 274 277 285 287 296 294 280 274 257 247 231 229 222 212 201 196 201 201 193 189 192 186 181 173 171 171 172 174 175 171 168 184 191 193 205 223
208 238 253 257 209 250 248 268 268 256 254 259 264 272 275 283 291 303 306 293 267 249 247 239 228 226 222 210 203 206 203 199 191 191 187 186 179 175 172 175 173 176 181 185 193 203 211 213 229
241 257 256 256 259 274 261 268 275 262 254 260 269 273 276 287 299 313 316 315 280 253 245 244 235 227 219 208 209 201 195 201 198 194 188 188 186 181 181 181 184 184 186 188 196 210 221 223 232
246 252 266 278 294 282 269 273 275 267 250 256 271 278 274 287 317 347 345 333 301 261 253 254 257 235 218 212 210 201 203 203 204 203 198 197 195 189 191 186 187 189 192 196 200 204 213 220 225
239 256 275 283 289 279 279 274 267 238 244 282 307 317 308 324 351 5 3 353 341 329 311 278 262 242 222 215 208 206 207 215 219 211 199 203 200 195 194 193 194 194 196 198 200 204 217 218 222
257 254 280 296 302 248 276 251 183 154 100 6 353 351 3 360 356 355 359 355 349 334 319 305 279 249 229 215 198 190 191 202 211 218 208 210 207 201 202 203 202 200 202 204 204 207 220 225 228
262 274 275 286 278 268 294 276 176 155 168 7 0 4 9 7 2 357 350 346 340 329 318 309 291 262 239 219 209 205 209 212 219 221 216 216 216 207 204 206 207 206 209 211 215 216 225 225 228
279 301 270 269 261 268 231 257 257 134 296 341 357 4 11 10 7 359 349 343 338 334 326 316 305 287 256 228 220 217 222 225 217 215 216 219 217 211 208 208 211 214 218 218 223 227 228 229 232
263 254 200 220 233 248 226 237 264 141 307 336 359 6 8 4 3 356 352 349 342 342 335 326 315 306 293 260 233 223 222 222 216 220 218 217 221 211 210 210 215 219 222 226 229 232 230 233 238
280 256 246 221 221 242 154 239 265 35 2 336 330 351 359 360 357 354 354 349 344 342 335 327 321 314 307 280 250 233 226 226 224 223 225 223 225 220 215 213 219 224 227 230 233 237 239 234 236
243 251 250 267 271 277 207 244 256 64 22 8 4 357 360 2 360 353 350 346 343 342 336 333 330 326 323 308 288 261 235 227 231 229 230 235 238 235 227 221 223 226 227 228 229 233 238 238 238
207 208 332 285 287 263 241 251 239 134 42 21 16 7 1 353 354 353 354 355 349 347 343 337 336 333 330 320 308 287 254 235 238 236 229 234 238 243 231 225 222 226 227 227 228 230 233 238 240
310 161 185 221 259 258 249 248 255 191 295 338 351 349 345 344 349 352 354 355 351 349 349 350 348 340 333 328 318 299 275 249 246 240 229 232 237 239 231 226 223 225 226 226 229 234 232 236 241
167 182 220 219 277 273 274 261 42 355 317 298 320 332 337 341 343 345 349 353 352 353 353 353 350 346 341 334 322 307 288 266 250 243 236 233 236 241 234 227 226 226 227 229 232 238 238 236 240
252 236 214 239 240 249 272 293 62 21 0 324 325 334 342 344 341 341 342 347 351 352 351 349 345 340 334 325 316 309 299 278 259 250 251 245 242 247 245 231 228 230 233 235 236 240 241 238 237